[[{"header":{"parameterUnit":"m.s-1","parameterCategory":1,"la1":30.2991,"la2":30.254,"lo1":-89.0895,"lo2":-89.0444,"dy":0.0017,"dx":0.0017,"nx":28,"ny":28,"refTime":"2025-12-15T03:00:00:Z","depth":0,"parameterNumber":2,"parameterNumberName":"U-component_of_WINDS"},"data":[0,0,0,0,0,0,0,0,0,0,0,0,0,0,0,0,0,0,0,0,0,0,0,0,0,0,0,0,0,0,0,0,0,0,0,0,0,0,0,0,0,0,0,0,0,0,0,0,0,0,0,0,0,0,0,0,0,0,-3.7765,-3.7766,0,-3.79,-3.7901,-3.7903,-3.7825,-3.7821,-3.7817,-3.7814,-3.7954,-3.7962,-3.7969,0,0,0,0,0,0,0,0,0,0,0,0,0,-3.744,-3.7447,-3.7764,-3.7766,-3.7768,-3.7899,-3.7901,-3.7903,-3.7826,-3.7821,-3.7816,-3.7812,-3.7952,-3.7961,-3.7969,0,0,0,0,0,0,0,0,0,0,0,0,0,-3.7579,-3.7449,-3.7764,-3.7745,-3.7745,-3.7899,-3.7901,-3.7904,-3.7827,-3.7821,-3.7815,-3.781,-3.7949,-3.796,-3.7971,-3.8152,0,0,-3.8004,-3.8009,0,0,0,0,0,0,0,0,-3.7571,-3.7591,-3.7746,-3.7747,-3.7746,-3.7839,-3.7838,-3.7987,-3.7828,-3.7796,-3.7814,-3.7807,-3.7921,-3.7934,-3.7972,-3.8159,-3.8165,-3.8005,-3.8012,-3.8016,-3.8019,0,0,0,0,0,0,0,-3.7562,-3.7585,-3.7818,-3.7748,-3.7749,-3.773,-3.7743,-3.7866,-3.7889,-3.7798,-3.7793,-3.781,-3.792,-3.7961,-3.7975,-3.8167,-3.8005,-3.8014,-3.8021,-3.8025,-3.8509,-3.8515,0,0,0,0,0,0,-3.7553,-3.7577,-3.7814,-3.7822,-3.7643,-3.774,-3.7755,-3.7815,-3.7887,-3.7893,-3.7814,-3.7805,-3.7946,-3.7962,-3.7979,-3.8197,-3.8016,-3.8027,-3.8033,-3.8503,-3.8511,-3.8518,0,0,0,0,0,0,-3.7547,-3.7575,-3.7808,-3.7698,-3.7726,-3.7752,-3.782,-3.7821,-3.7862,-3.7899,-3.7903,-3.7853,-3.7942,-3.7964,-3.811,-3.8201,-3.8031,-3.8041,-3.8496,-3.8506,-3.8514,-3.8634,0,0,0,0,0,0,-3.7538,-3.7573,-3.7642,-3.77,-3.7733,-3.7937,-3.7826,-3.7828,-3.7881,-3.7871,-3.7936,-3.7942,-3.7939,-3.8094,-3.812,-3.8213,-3.805,-3.8488,-3.85,-3.8511,-3.8622,-3.8646,-3.8667,0,0,0,0,0,-3.7526,-3.7671,-3.7646,-3.7675,-3.782,-3.7942,-3.796,-3.7954,-3.7889,-3.7959,-3.7982,-3.794,-3.8186,-3.8109,-3.8139,-3.8236,-3.8482,-3.8497,-3.851,-3.8612,-3.8642,-3.8667,0,0,0,0,0,0,-3.7625,-3.7679,-3.7652,-3.7819,-3.7877,-3.7928,-3.8017,-3.7985,-3.8063,-3.805,-3.8039,-3.8054,-3.8206,-3.8235,-3.8149,-3.8415,-3.8324,-3.8345,-3.8391,-3.842,-3.8442,-3.8432,-3.8059,0,0,0,0,0,-3.7665,-3.776,-3.7802,-3.7946,-3.7976,-3.7992,-3.8045,-3.8034,-3.8093,-3.8117,-3.8151,-3.8211,-3.8301,-3.8362,-3.8447,-3.8625,-3.8638,-3.8706,-3.8728,-3.8747,-3.8766,-3.8862,-3.8893,-3.8564,-3.8564,-3.8564,0,0,-3.7752,-3.7793,-3.7853,-3.7967,-3.801,-3.8108,-3.8013,-3.8121,-3.8194,-3.8134,-3.8274,-3.8301,-3.8366,-3.8529,-3.8602,-3.8558,-3.8859,-3.8765,-3.8779,-3.8788,-3.888,-3.8911,-3.8938,-3.8574,-3.8572,-3.857,0,0,-3.7959,-3.7999,-3.8124,-3.8169,-3.8235,-3.8244,-3.8274,-3.833,-3.8346,-3.8485,-3.8442,-3.8529,-3.8685,-3.8734,-3.8779,-3.9003,-3.8967,-3.9031,-3.915,-3.9244,-3.927,-3.9293,-3.9374,-3.9403,-3.9049,-3.9049,-3.905,0,-3.8059,-3.8205,-3.8192,-3.8304,-3.8355,-3.8304,-3.843,-3.8474,-3.8565,-3.8602,-3.855,-3.8745,-3.8785,-3.8959,-3.9013,-3.9051,-3.9085,-3.9025,-3.9267,-3.929,-3.9311,-3.9388,-3.9419,-3.9057,-3.9056,-3.9055,-3.9055,0,-3.8324,-3.8426,-3.8518,-3.8607,-3.8668,-3.8786,-3.8792,-3.8856,-3.884,-3.8854,-3.8997,-3.9043,-3.9137,-3.9177,-3.9163,-3.9349,-3.9319,-3.9267,-3.9176,-3.935,-3.9422,-3.9452,-3.9068,-3.9065,-3.9063,-3.9061,0,0,-3.86,-3.8678,-3.8712,-3.8752,-3.882,-3.8898,-3.9014,-3.9105,-3.916,-3.9224,-3.9321,-3.9454,-3.9406,-3.9457,-3.9448,-3.953,-3.9705,-3.9468,-3.9469,-3.9512,-3.9914,-3.9954,-3.9988,-3.9681,-3.9686,-3.9691,-3.9909,0,-3.8813,-3.9015,-3.9006,-3.9195,-3.9289,-3.9241,-3.9341,-3.9394,-3.9411,-3.9493,-3.9511,-3.9605,-3.9535,-3.9565,-3.9644,-3.9667,-3.9786,-3.9651,-3.9772,-3.9777,-3.976,-4.0026,-4.0068,-4.0272,-3.9937,-3.9942,-3.9945,0,-3.9089,-3.9161,-3.9359,-3.9413,-3.9452,-3.9543,-3.9625,-3.9704,-3.9763,-3.9769,-3.9825,-3.9802,-3.9919,-3.9823,-3.9985,-3.9893,-3.9942,-3.996,-3.9968,-3.9981,-3.9873,-4.0047,-4.0337,-4.0368,-3.9989,-3.9986,-3.9983,0,-3.9272,-3.9418,-3.9556,-3.9591,-3.9656,-3.9721,-3.9752,-3.9804,-3.9859,-3.9931,-3.9967,-4.0051,-4.0098,-4.0165,-4.0165,-4.0094,-4.0329,-4.0232,-4.0338,-4.0339,-4.0392,-4.0389,-4.0695,-4.042,-4.042,-4.0419,-4.0419,0,-3.9512,-3.9635,-3.9639,-3.9724,-3.9861,-3.9849,-3.9985,-4.0009,-4.0056,-4.0145,-4.0107,-4.0192,-4.0186,-4.0271,-4.0271,-4.0406,-4.0427,-4.0436,-4.0435,-4.0441,-4.044,-4.0474,-4.046,-4.0427,-4.0426,-4.0424,-4.0423,0,-3.974,-3.9747,-3.9894,-3.9944,-3.9959,-4.0058,-4.01,-4.0181,-4.0192,-4.0305,-4.0331,-4.035,-4.0449,-4.0455,-4.0568,-4.0568,-4.0732,-4.0715,-4.0713,-4.071,-4.0816,-4.0807,-4.1157,-4.1202,-4.0896,-4.0899,-4.0902,0,-3.9894,-3.9988,-4.0047,-4.0103,-4.0137,-4.0228,-4.0284,-4.0275,-4.0335,-4.0408,-4.048,-4.0574,-4.065,-4.0809,-4.0834,-4.092,-4.0906,-4.1022,-4.0919,-4.0921,-4.0909,-4.0904,-4.0914,-4.1043,-4.1047,-4.1049,-4.1052,0,-4.0166,-4.0165,-4.0246,-4.0329,-4.0396,-4.046,-4.0521,-4.0569,-4.0568,-4.0636,-4.0736,-4.0794,-4.0909,-4.1004,-4.1088,-4.1119,-4.1087,-4.1084,-4.1113,-4.1121,-4.1116,-4.1121,-4.077,-4.1076,-4.1074,-4.1072,-4.1071,-4.107,-4.0363,-4.0444,-4.0498,-4.059,-4.0633,-4.069,-4.0769,-4.0789,-4.0872,-4.0965,-4.0955,-4.1066,-4.1121,-4.123,-4.1268,-4.1355,-4.1315,-4.1357,-4.1368,-4.138,-4.1391,-4.11,-4.137,-4.1369,-4.1369,-4.1368,-4.1368,0,-4.0635,-4.0666,-4.075,-4.0835,-4.0907,-4.0867,-4.0932,-4.0995,-4.1093,-4.1147,-4.1221,-4.1335,-4.1426,-4.1457,-4.1546,-4.1609,-4.1596,-4.1633,-4.1629,-4.1637,-4.1421,-4.1388,-4.1642,-4.1642,-4.1642,-4.1642,-4.1642,-4.1642,-4.0785,-4.092,-4.0924,-4.1081,-4.1111,-4.1219,-4.126,-4.1312,-4.1355,-4.1484,-4.1559,-4.1578,-4.1623,-4.1714,-4.1796,-4.1802,-4.1837,-4.1881,-4.1882,-4.168,-4.1652,-4.1626,-4.1595,-4.1888,-4.1889,-4.209,-4.2092,-4.2094]},{"header":{"parameterUnit":"m.s-1","parameterCategory":1,"la1":30.2991,"la2":30.254,"lo1":-89.0895,"lo2":-89.0444,"dy":0.0017,"dx":0.0017,"nx":28,"ny":28,"refTime":"2025-12-15T03:00:00:Z","depth":0,"parameterNumber":3,"parameterNumberName":"V-component_of_WINDS"},"data":[0,0,0,0,0,0,0,0,0,0,0,0,0,0,0,0,0,0,0,0,0,0,0,0,0,0,0,0,0,0,0,0,0,0,0,0,0,0,0,0,0,0,0,0,0,0,0,0,0,0,0,0,0,0,0,0,0,0,-7.3762,-7.3763,0,-7.3855,-7.3856,-7.3857,-7.3766,-7.3763,-7.3759,-7.3756,-7.3845,-7.3851,-7.3856,0,0,0,0,0,0,0,0,0,0,0,0,0,-7.35,-7.3505,-7.3762,-7.3763,-7.3765,-7.3855,-7.3856,-7.3857,-7.3767,-7.3762,-7.3758,-7.3754,-7.3843,-7.385,-7.3857,0,0,0,0,0,0,0,0,0,0,0,0,0,-7.3605,-7.3507,-7.3762,-7.373,-7.3729,-7.3855,-7.3856,-7.3858,-7.3768,-7.3762,-7.3757,-7.3752,-7.3841,-7.3849,-7.3858,-7.4018,0,0,-7.3884,-7.3888,0,0,0,0,0,0,0,0,-7.3599,-7.3615,-7.3734,-7.3733,-7.3731,-7.3794,-7.3796,-7.3911,-7.3769,-7.3753,-7.3756,-7.3749,-7.3832,-7.3841,-7.387,-7.4022,-7.4026,-7.3885,-7.389,-7.3894,-7.3896,0,0,0,0,0,0,0,-7.3592,-7.361,-7.3799,-7.3736,-7.3734,-7.3709,-7.3718,-7.3818,-7.3821,-7.3754,-7.3747,-7.376,-7.383,-7.3862,-7.3871,-7.4027,-7.3884,-7.3892,-7.3897,-7.3901,-7.4312,-7.4318,0,0,0,0,0,0,-7.3589,-7.3605,-7.3796,-7.3801,-7.3651,-7.3718,-7.3728,-7.3779,-7.382,-7.3821,-7.3764,-7.3755,-7.385,-7.3861,-7.3874,-7.4062,-7.3894,-7.3902,-7.3906,-7.4306,-7.4313,-7.432,0,0,0,0,0,0,-7.3584,-7.3607,-7.3792,-7.3702,-7.3723,-7.3729,-7.3786,-7.3783,-7.3815,-7.3828,-7.3827,-7.3797,-7.3846,-7.3862,-7.3983,-7.4064,-7.3905,-7.3913,-7.43,-7.4308,-7.4316,-7.4442,0,0,0,0,0,0,-7.3577,-7.3606,-7.3669,-7.3704,-7.3728,-7.3902,-7.3791,-7.3789,-7.3831,-7.382,-7.3858,-7.3859,-7.3843,-7.397,-7.3991,-7.4073,-7.392,-7.4292,-7.4304,-7.4314,-7.443,-7.4454,-7.4474,0,0,0,0,0,-7.3568,-7.37,-7.3672,-7.3696,-7.3807,-7.3907,-7.392,-7.3901,-7.3838,-7.39,-7.3907,-7.3858,-7.4052,-7.3983,-7.4006,-7.4092,-7.4287,-7.43,-7.4313,-7.4421,-7.4449,-7.4473,0,0,0,0,0,0,-7.3672,-7.3704,-7.3674,-7.3821,-7.3862,-7.3891,-7.3969,-7.3932,-7.399,-7.3977,-7.3948,-7.3958,-7.4085,-7.41,-7.4023,-7.4247,-7.4159,-7.4177,-7.4233,-7.426,-7.4281,-7.4274,-7.3927,0,0,0,0,0,-7.3713,-7.3793,-7.3815,-7.3943,-7.3965,-7.3964,-7.4006,-7.3987,-7.4028,-7.4044,-7.406,-7.41,-7.4169,-7.4215,-7.428,-7.4432,-7.4437,-7.4502,-7.4524,-7.4541,-7.4557,-7.4636,-7.4664,-7.4362,-7.4362,-7.4362,0,0,-7.3797,-7.3824,-7.3876,-7.3965,-7.3994,-7.4075,-7.3979,-7.4069,-7.4128,-7.4057,-7.4172,-7.4185,-7.4227,-7.4363,-7.4424,-7.438,-7.4641,-7.4558,-7.4572,-7.4578,-7.4652,-7.468,-7.4706,-7.4371,-7.437,-7.4368,0,0,-7.3991,-7.4021,-7.413,-7.4161,-7.4207,-7.4205,-7.4231,-7.4266,-7.4272,-7.4387,-7.4335,-7.4403,-7.4525,-7.4556,-7.4587,-7.4792,-7.4747,-7.4813,-7.4926,-7.5003,-7.5027,-7.5048,-7.5118,-7.5144,-7.4829,-7.4829,-7.483,0,-7.4089,-7.4212,-7.419,-7.4284,-7.4323,-7.4264,-7.4372,-7.4403,-7.4467,-7.4494,-7.4445,-7.4594,-7.4618,-7.4759,-7.4809,-7.4837,-7.4864,-7.4809,-7.5026,-7.5046,-7.5065,-7.5132,-7.5159,-7.4837,-7.4836,-7.4835,-7.4835,0,-7.4329,-7.4414,-7.4496,-7.4561,-7.4609,-7.471,-7.4701,-7.4752,-7.4729,-7.4731,-7.4847,-7.4874,-7.4942,-7.4974,-7.4952,-7.5112,-7.5083,-7.503,-7.494,-7.5102,-7.5164,-7.519,-7.4848,-7.4845,-7.4843,-7.4841,0,0,-7.4593,-7.4644,-7.4674,-7.4701,-7.4747,-7.4811,-7.4908,-7.4976,-7.5019,-7.5065,-7.5143,-7.5246,-7.5197,-7.5233,-7.5213,-7.5281,-7.5438,-7.5219,-7.522,-7.5258,-7.5614,-7.5652,-7.5683,-7.541,-7.5414,-7.5418,-7.5609,0,-7.4787,-7.4957,-7.4939,-7.51,-7.5177,-7.512,-7.5204,-7.524,-7.5244,-7.5307,-7.5311,-7.5384,-7.5314,-7.5335,-7.54,-7.5406,-7.5509,-7.5392,-7.548,-7.5483,-7.547,-7.5716,-7.5758,-7.5937,-7.5634,-7.5638,-7.5641,0,-7.5037,-7.5093,-7.5262,-7.5294,-7.5325,-7.5401,-7.5461,-7.5523,-7.5561,-7.5559,-7.5599,-7.5567,-7.566,-7.557,-7.5697,-7.5617,-7.5652,-7.566,-7.5666,-7.5673,-7.5571,-7.5727,-7.5994,-7.602,-7.568,-7.5677,-7.5674,0,-7.5211,-7.5328,-7.5443,-7.5469,-7.5509,-7.5563,-7.5582,-7.5615,-7.5656,-7.5708,-7.5733,-7.5795,-7.5828,-7.5875,-7.5859,-7.5794,-7.5989,-7.5897,-7.5987,-7.5988,-7.603,-7.6028,-7.6305,-7.6055,-7.6055,-7.6054,-7.6054,0,-7.5429,-7.5534,-7.5521,-7.5593,-7.5707,-7.5684,-7.5798,-7.5809,-7.5839,-7.5909,-7.5863,-7.5929,-7.5905,-7.5969,-7.5957,-7.6063,-7.6079,-7.6078,-7.6073,-7.6081,-7.6081,-7.6103,-7.6089,-7.6061,-7.606,-7.6058,-7.6057,0,-7.5642,-7.5638,-7.576,-7.5788,-7.5798,-7.5881,-7.5904,-7.5969,-7.5969,-7.6058,-7.6078,-7.6077,-7.615,-7.6139,-7.622,-7.6211,-7.6343,-7.6324,-7.6331,-7.6326,-7.6416,-7.6407,-7.6716,-7.6754,-7.6482,-7.6484,-7.6486,0,-7.5781,-7.5861,-7.5898,-7.5942,-7.5965,-7.6038,-7.608,-7.6059,-7.6104,-7.6152,-7.6211,-7.628,-7.6334,-7.6452,-7.6458,-7.6518,-7.6499,-7.6603,-7.6508,-7.6513,-7.6499,-7.6494,-7.65,-7.6622,-7.6625,-7.6627,-7.6629,0,-7.6028,-7.6022,-7.6085,-7.6148,-7.6199,-7.6247,-7.629,-7.6328,-7.6311,-7.6363,-7.6438,-7.648,-7.6562,-7.663,-7.6687,-7.6703,-7.6663,-7.6659,-7.6683,-7.6692,-7.6692,-7.6691,-7.6381,-7.6652,-7.665,-7.6648,-7.6647,-7.6646,-7.6207,-7.6275,-7.6311,-7.6382,-7.6412,-7.6453,-7.6515,-7.6523,-7.6585,-7.6652,-7.6635,-7.6719,-7.6752,-7.6824,-7.6846,-7.691,-7.6871,-7.6906,-7.6915,-7.6923,-7.6933,-7.6683,-7.692,-7.6919,-7.6919,-7.6918,-7.6918,0,-7.645,-7.6471,-7.6536,-7.6598,-7.6653,-7.6612,-7.6657,-7.6705,-7.678,-7.6815,-7.6869,-7.6953,-7.7019,-7.7029,-7.709,-7.7139,-7.7122,-7.7156,-7.7151,-7.7155,-7.6965,-7.6938,-7.7168,-7.7168,-7.7168,-7.7168,-7.7168,-7.7168,-7.6583,-7.6694,-7.6692,-7.6816,-7.6834,-7.6918,-7.6946,-7.6982,-7.701,-7.7107,-7.7161,-7.7168,-7.7192,-7.7255,-7.7312,-7.7313,-7.7336,-7.7377,-7.7371,-7.7194,-7.7169,-7.7145,-7.7119,-7.7383,-7.7384,-7.7555,-7.7557,-7.7558]}]]